Weather History for Dyersburg, TN

Change the Weather History Date:

Friday, May 16, 2014

  Actual Average Record
Temperature  
Mean Temperature 56 °F -  
Max Temperature 66 °F 76 °F 89 °F (2012)
Min Temperature 46 °F 58 °F 42 °F (1997)
Degree Days  
Heating Degree Days 9    
Growing Degree Days 6 (Base 50)    
Moisture  
Dew Point 40 °F    
Average Humidity 55    
Maximum Humidity 76    
Minimum Humidity 35    
Precipitation  
Precipitation 0.00 in - - ()
Sea Level Pressure  
Sea Level Pressure 30.10 in    
Wind  
Wind Speed 4 mph (WNW)    
Max Wind Speed 14 mph    
Max Gust Speed 20 mph    
Visibility 9 miles    
Events      
Averages and records for this station are not official NWS values.
T = Trace of Precipitation, MM = Missing Value Source: NWS Daily Summary

Daily Weather History Graph

Daily Weather History Graph

Search for Another Location

Airport:

Trip Planner

Search our weather history database for the weather conditions in past years. The results will help you decide how hot, cold, wet, or windy it might be!

Date:

Astronomy

May. 16, 2014 Rise Set
Actual Time 5:51 AM CDT 7:57 PM CDT
Civil Twilight 5:22 AM CDT 8:26 PM CDT
Nautical Twilight 4:47 AM CDT 9:01 PM CDT
Astronomical Twilight 4:09 AM CDT 9:38 PM CDT
Moon 10:04 PM CDT (5/16) 7:32 AM CDT (5/16)
Length of Visible Light 15h 03m
Length of Day
14h 06m
Waning Gibbous, 95% of the Moon is Illuminated
May 16
Waning Gibbous
May 21
Last Quarter
May 28
New
Jun 5
First Quarter
Jun 12
Full

Hourly Weather History & Observations

Time (CDT) Temp. Windchill Dew Point Humidity Pressure Visibility Wind Dir Wind Speed Gust Speed Precip Events Conditions
12:15 AM 51.8 °F - 42.8 °F 71% 30.11 in 10.0 mi North 3.5 mph - N/A   Mostly Cloudy
12:35 AM 51.8 °F - 42.8 °F 71% 30.11 in 10.0 mi North 3.5 mph - N/A   Overcast
12:55 AM 51.8 °F - 41.0 °F 67% 30.11 in 10.0 mi Calm Calm - N/A   Overcast
1:15 AM 51.8 °F - 41.0 °F 67% 30.11 in 10.0 mi Calm Calm - N/A   Overcast
1:35 AM 51.8 °F - 41.0 °F 67% 30.10 in 10.0 mi Calm Calm - N/A   Scattered Clouds
1:55 AM 50.0 °F - 39.2 °F 66% 30.09 in 10.0 mi Calm Calm - N/A   Clear
2:15 AM 48.2 °F - 39.2 °F 71% 30.09 in 10.0 mi Calm Calm - N/A   Clear
2:35 AM 48.2 °F - 39.2 °F 71% 30.09 in 10.0 mi Calm Calm - N/A   Clear
2:55 AM 48.2 °F - 39.2 °F 71% 30.09 in 8.0 mi Calm Calm - N/A   Clear
3:15 AM 48.2 °F - 39.2 °F 71% 30.09 in 1.8 mi Calm Calm - N/A   Clear
3:35 AM 48.2 °F - 39.2 °F 71% 30.09 in 10.0 mi Calm Calm - N/A   Clear
3:55 AM 46.4 °F - 37.4 °F 71% 30.09 in 1.0 mi Calm Calm - N/A   Clear
4:15 AM 46.4 °F 45.2 °F 39.2 °F 76% 30.10 in 10.0 mi West 3.5 mph - N/A   Clear
4:35 AM 46.4 °F 43.5 °F 39.2 °F 76% 30.10 in 10.0 mi West 5.8 mph - N/A   Clear
4:55 AM 48.2 °F - 39.2 °F 71% 30.10 in 10.0 mi WSW 5.8 mph - N/A   Clear
5:15 AM 48.2 °F - 39.2 °F 71% 30.10 in 10.0 mi WSW 4.6 mph - N/A   Clear
5:35 AM 48.2 °F - 39.2 °F 71% 30.10 in 8.0 mi WSW 3.5 mph - N/A   Clear
5:55 AM 46.4 °F 45.2 °F 39.2 °F 76% 30.10 in 5.0 mi WSW 3.5 mph - N/A   Clear
6:15 AM 46.4 °F - 37.4 °F 71% 30.10 in 6.0 mi Calm Calm - N/A   Clear
6:35 AM 48.2 °F - 39.2 °F 71% 30.10 in 4.0 mi Calm Calm - N/A   Clear
6:55 AM 48.2 °F - 41.0 °F 76% 30.11 in 8.0 mi West 5.8 mph - N/A   Clear
7:15 AM 50.0 °F - 42.8 °F 76% 30.11 in 8.0 mi West 6.9 mph - N/A   Clear
7:35 AM 50.0 °F - 42.8 °F 76% 30.12 in 7.0 mi West 4.6 mph - N/A   Partly Cloudy
7:55 AM 51.8 °F - 42.8 °F 71% 30.12 in 10.0 mi West 8.1 mph - N/A   Partly Cloudy
8:15 AM 51.8 °F - 44.6 °F 76% 30.12 in 10.0 mi West 8.1 mph - N/A   Clear
8:35 AM 53.6 °F - 44.6 °F 72% 30.13 in 10.0 mi West 9.2 mph - N/A   Clear
8:55 AM 55.4 °F - 42.8 °F 63% 30.13 in 10.0 mi WNW 6.9 mph - N/A   Clear
9:15 AM 55.4 °F - 39.2 °F 54% 30.13 in 10.0 mi West 8.1 mph - N/A   Clear
9:35 AM 57.2 °F - 37.4 °F 48% 30.13 in 10.0 mi NW 6.9 mph - N/A   Clear
9:55 AM 57.2 °F - 39.2 °F 51% 30.13 in 10.0 mi West 5.8 mph - N/A   Clear
10:15 AM 57.2 °F - 37.4 °F 48% 30.13 in 10.0 mi NW 6.9 mph - N/A   Clear
10:35 AM 59.0 °F - 35.6 °F 42% 30.13 in 10.0 mi WNW 8.1 mph - N/A   Clear
10:55 AM 60.8 °F - 35.6 °F 39% 30.13 in 10.0 mi WSW 6.9 mph - N/A   Clear
11:15 AM 60.8 °F - 35.6 °F 39% 30.12 in 10.0 mi West 9.2 mph - N/A   Clear
11:35 AM 60.8 °F - 37.4 °F 42% 30.12 in 10.0 mi West 5.8 mph - N/A   Clear
11:55 AM 60.8 °F - 37.4 °F 42% 30.12 in 10.0 mi West 8.1 mph - N/A   Clear
12:15 PM 62.6 °F - 37.4 °F 39% 30.12 in 10.0 mi WNW 8.1 mph - N/A   Partly Cloudy
12:35 PM 62.6 °F - 39.2 °F 42% 30.12 in 10.0 mi West 10.4 mph - N/A   Scattered Clouds
12:55 PM 62.6 °F - 37.4 °F 39% 30.12 in 10.0 mi WNW 10.4 mph - N/A   Scattered Clouds
1:15 PM 62.6 °F - 39.2 °F 42% 30.11 in 10.0 mi West 8.1 mph - N/A   Partly Cloudy
1:35 PM 62.6 °F - 39.2 °F 42% 30.10 in 10.0 mi WNW 6.9 mph - N/A   Clear
1:55 PM 64.4 °F - 39.2 °F 40% 30.10 in 10.0 mi WSW 10.4 mph 17.3 mph N/A   Partly Cloudy
2:15 PM 64.4 °F - 41.0 °F 42% 30.09 in 10.0 mi SW 10.4 mph 18.4 mph N/A   Partly Cloudy
2:35 PM 64.4 °F - 39.2 °F 40% 30.09 in 10.0 mi West 6.9 mph 16.1 mph N/A   Mostly Cloudy
2:55 PM 66.2 °F - 39.2 °F 37% 30.09 in 10.0 mi WNW 12.7 mph 19.6 mph N/A   Scattered Clouds
3:15 PM 64.4 °F - 39.2 °F 40% 30.09 in 10.0 mi WSW 13.8 mph - N/A   Partly Cloudy
3:35 PM 66.2 °F - 39.2 °F 37% 30.08 in 10.0 mi WNW 8.1 mph - N/A   Partly Cloudy
3:55 PM 66.2 °F - 39.2 °F 37% 30.07 in 10.0 mi West 10.4 mph 19.6 mph N/A   Partly Cloudy
4:15 PM 66.2 °F - 39.2 °F 37% 30.07 in 10.0 mi West 11.5 mph 17.3 mph N/A   Partly Cloudy
4:35 PM 66.2 °F - 37.4 °F 35% 30.07 in 10.0 mi WNW 9.2 mph 19.6 mph N/A   Partly Cloudy
4:55 PM 64.4 °F - 37.4 °F 37% 30.07 in 10.0 mi West 11.5 mph 18.4 mph N/A   Partly Cloudy
5:15 PM 66.2 °F - 39.2 °F 37% 30.07 in 10.0 mi West 8.1 mph 18.4 mph N/A   Partly Cloudy
5:35 PM 64.4 °F - 39.2 °F 40% 30.07 in 10.0 mi West 9.2 mph - N/A   Clear
5:55 PM 64.4 °F - 37.4 °F 37% 30.07 in 10.0 mi West 9.2 mph - N/A   Partly Cloudy
6:15 PM 64.4 °F - 37.4 °F 37% 30.07 in 10.0 mi West 8.1 mph - N/A   Clear
6:35 PM 64.4 °F - 37.4 °F 37% 30.07 in 10.0 mi West 8.1 mph - N/A   Clear
6:55 PM 62.6 °F - 37.4 °F 39% 30.07 in 10.0 mi West 8.1 mph - N/A   Clear
7:15 PM 62.6 °F - 37.4 °F 39% 30.08 in 10.0 mi West 5.8 mph - N/A   Clear
7:35 PM 62.6 °F - 37.4 °F 39% 30.08 in 10.0 mi West 4.6 mph - N/A   Clear
7:55 PM 60.8 °F - 39.2 °F 45% 30.08 in 10.0 mi Calm Calm - N/A   Clear
8:15 PM 60.8 °F - 39.2 °F 45% 30.08 in 10.0 mi Calm Calm - N/A   Clear
8:35 PM 59.0 °F - 42.8 °F 55% 30.08 in 10.0 mi Calm Calm - N/A   Partly Cloudy
8:55 PM 57.2 °F - 44.6 °F 63% 30.09 in 10.0 mi Calm Calm - N/A   Scattered Clouds
9:15 PM 57.2 °F - 44.6 °F 63% 30.09 in 10.0 mi Calm Calm - N/A   Partly Cloudy
9:35 PM 57.2 °F - 44.6 °F 63% 30.09 in 10.0 mi Calm Calm - N/A   Partly Cloudy
9:55 PM 57.2 °F - 44.6 °F 63% 30.10 in 10.0 mi Calm Calm - N/A   Partly Cloudy
10:15 PM 57.2 °F - 44.6 °F 63% 30.11 in 10.0 mi Calm Calm - N/A   Mostly Cloudy
10:35 PM 57.2 °F - 42.8 °F 59% 30.12 in 10.0 mi NNW 5.8 mph - N/A   Mostly Cloudy
10:55 PM 59.0 °F - 42.8 °F 55% 30.12 in 10.0 mi NW 3.5 mph - N/A   Scattered Clouds
11:15 PM 59.0 °F - 41.0 °F 51% 30.12 in 10.0 mi North 4.6 mph - N/A   Mostly Cloudy
11:35 PM 59.0 °F - 39.2 °F 48% 30.12 in 10.0 mi North 5.8 mph - N/A   Scattered Clouds
11:55 PM 57.2 °F - 39.2 °F 51% 30.12 in 10.0 mi North 6.9 mph - N/A   Mostly Cloudy